Orbital Elements at Epoch 2459200.5 (2020-Dec-17.0) TDB
Reference: JPL 28 (heliocentric ecliptic J2000)
Element | Value | Uncertainty (1-sigma) | Units |
e | .06671518898306796 | 3.7782e-08 | |
a | 3.184585468120006 | 1.975e-08 | au |
q | 2.972125246781648 | 1.1939e-07 | au |
i | 9.552418236581259 | 4.4247e-06 | deg |
node | 182.5430349632067 | 2.2249e-05 | deg |
peri | 43.05729545100431 | 3.6868e-05 | deg |
M | 298.6547602543054 | 2.8975e-05 | deg |
tp | 2459554.217183040939 (2021-Dec-05.71718304) | 0.00016726 | TDB |
period | 2075.763114181569 5.68 | 1.931e-05 5.287e-08 | d yr |
n | .173430194197251 | 1.6133e-09 | deg/d |
Q | 3.397045689458364 | 2.1067e-08 | au |
|
| | Orbit Determination Parameters
Additional Information
|